DW4360 Weather Reports


time (UTC)temp
F
wind
direction
speed
knots
gust
knots
rain 1hr
in
rain 24hr
in
rain mn
in
humidity
%
barometer
mb
20260505011439 74 218 0.0 0.0 0.00 0.00 0.00 61 1009.0
20260505010438 74 219 0.0 0.0 0.00 0.00 0.00 61 1008.9
20260505005437 74 230 0.0 0.0 0.00 0.00 0.00 59 1009.0
20260505004436 75 229 2.6 0.0 0.00 0.00 0.00 60 1009.1
20260505003435 76 225 3.5 0.0 0.00 0.00 0.00 57 1009.1
20260505002434 77 247 3.5 0.0 0.00 0.00 0.00 54 1009.1
20260505001432 78 246 3.5 0.0 0.00 0.00 0.00 56 1009.1
20260505000432 78 261 6.1 0.0 0.00 0.00 0.00 54 1009.3
20260504235431 78 219 0.0 0.0 0.00 0.00 0.00 53 1009.3
20260504234429 79 209 2.6 0.0 0.00 0.00 0.00 52 1009.3
20260504233429 79 241 0.0 0.0 0.00 0.00 0.00 53 1009.3
20260504231427 78 227 0.0 0.0 0.00 0.00 0.00 55 1009.5
20260504230425 77 259 0.0 0.0 0.00 0.00 0.00 52 1009.6
20260504225425 76 269 1.7 0.0 0.00 0.00 0.00 55 1009.8
20260504224423 76 240 0.9 0.0 0.00 0.00 0.00 54 1009.8
20260504223422 76 165 0.0 0.0 0.00 0.00 0.00 55 1010.0
20260504222421 76 161 0.0 0.0 0.00 0.00 0.00 55 1010.1
20260504221421 76 223 0.0 0.0 0.00 0.00 0.00 53 1010.2
20260504220420 76 231 0.0 0.0 0.00 0.00 0.00 55 1010.4
20260504215419 76 238 0.0 0.0 0.00 0.00 0.00 55 1010.5
20260504214418 75 252 0.0 0.0 0.00 0.00 0.00 55 1010.6
20260504204412 72 205 0.0 0.0 0.00 0.00 0.00 61 1011.6
20260504203411 72 248 0.0 0.0 0.00 0.00 0.00 60 1011.6
20260504202409 71 198 0.0 0.0 0.00 0.00 0.00 62 1011.7
20260504201408 71 239 0.0 0.0 0.00 0.00 0.00 62 1011.8
20260504200407 70 209 0.0 0.0 0.00 0.00 0.00 64 1012.0
20260504193404 66 179 0.0 0.0 0.00 0.00 0.00 68 1012.2
20260504192403 65 244 0.0 0.0 0.00 0.00 0.00 69 1012.2
20260504191403 64 201 0.0 0.0 0.00 0.00 0.00 71 1012.2
20260504190401 63 248 1.7 0.0 0.00 0.00 0.00 73 1012.3
20260504185401 63 266 2.6 0.0 0.00 0.00 0.00 73 1012.4
20260504184359 62 254 0.0 0.0 0.00 0.00 0.00 74 1012.5
20260504183359 62 181 0.0 0.0 0.00 0.00 0.00 75 1012.4
20260504182358 62 192 6.1 0.0 0.00 0.00 0.00 76 1012.4
20260504181356 61 214 0.0 0.0 0.00 0.00 0.00 78 1012.4
20260504180355 60 206 0.0 0.0 0.00 0.00 0.00 79 1012.5
20260504172351 58 215 0.0 0.0 0.00 0.00 0.00 80 1012.4
20260504171350 58 254 0.9 0.0 0.00 0.00 0.00 81 1012.4
20260504160343 57 229 0.0 0.0 0.00 0.00 0.00 83 1012.3
20260504150337 55 184 5.2 0.0 0.00 0.00 0.00 85 1011.9
20260504141331 55 266 0.9 0.0 0.00 0.00 0.00 85 1011.2
20260504110312 61 214 2.6 0.0 0.00 0.00 0.00 73 1008.5
20260504100307 64 198 0.0 0.0 0.00 0.00 0.00 68 1007.7
20260504081255 68 315 0.0 0.0 0.00 0.00 0.00 56 1007.0
20260504080254 69 315 0.0 0.0 0.00 0.00 0.00 57 1006.8
20260504070248 72 315 0.0 0.0 0.00 0.00 0.00 47 1006.4
20260504060242 75 315 0.0 0.0 0.00 0.00 0.00 41 1005.9
20260504050236 77 324 0.0 0.0 0.00 0.00 0.00 40 1005.8
20260504045235 78 324 0.0 0.0 0.00 0.00 0.00 40 1005.9
20260504044234 78 316 0.0 0.0 0.00 0.00 0.00 40 1005.8
20260504043233 79 322 1.7 0.0 0.00 0.00 0.00 41 1005.7
20260504042232 79 321 0.0 0.0 0.00 0.00 0.00 41 1005.7
20260504041231 80 324 0.0 0.0 0.00 0.00 0.00 41 1005.7
20260504040230 80 322 0.0 0.0 0.00 0.00 0.00 39 1005.5
20260504035229 81 325 0.0 0.0 0.00 0.00 0.00 38 1005.4
20260504034228 82 304 0.0 0.0 0.00 0.00 0.00 37 1005.3
20260504033226 82 333 0.0 0.0 0.00 0.00 0.00 37 1005.2
20260504032225 83 320 0.0 0.0 0.00 0.00 0.00 36 1005.1
20260504031225 84 325 0.0 0.0 0.00 0.00 0.00 35 1005.0
20260504030223 84 317 0.0 0.0 0.00 0.00 0.00 34 1005.0
20260504025223 85 326 2.6 0.0 0.00 0.00 0.00 33 1004.9
20260504024221 85 321 0.0 0.0 0.00 0.00 0.00 32 1004.8
20260504023221 86 323 1.7 0.0 0.00 0.00 0.00 31 1004.8
20260504022220 86 318 1.7 0.0 0.00 0.00 0.00 31 1004.9
20260504021219 86 313 0.0 0.0 0.00 0.00 0.00 31 1004.9
20260504015217 87 333 1.7 0.0 0.00 0.00 0.00 30 1005.0
20260504014216 88 329 5.2 0.0 0.00 0.00 0.00 30 1005.0
20260504012213 89 311 0.0 0.0 0.00 0.00 0.00 29 1005.0